Location: Buckland
(65.9785°N, 161.1281°W)
Time: 21:38:31
(UTC+00:00)

Transit 4A - Pass Details

Date: 06 August 2021
Orbit: 870 x 974 km, 66.8° (Epoch: 25 September)

Event Time Altitude Azimuth Distance (km) Brightness Sun altitude
Exits shadow 11:25:42 - 229° (SW) 3,479 10.4 -7.2°
Rises 11:25:44 0° 229° (SW) 3,469 10.4 -7.2°
Reaches altitude 10° 11:28:13 10° 226° (SW) 2,527 9.7 -7.2°
Maximum altitude 11:33:59 65° 146° (SSE) 957 7.8 -7.1°
Drops below altitude 10° 11:39:46 10° 66° (ENE) 2,537 10.7 -6.9°
Sets 11:42:16 0° 64° (ENE) 3,485 11.5 -6.9°
